STARLINK-1678, 46538

Orbit data source: Space-Track

STARLINK-1678, 46538 is a payload satellite owned by SpaceX/Seattle (US) in LEO that was launched on Tue, 06 Oct 2020 UTC via an FALCON 9 launch vehicle from the Air Force Eastern Test Range (AFETR). Payload-class satellites include a variety of spacecraft equipped with specific instruments for various scientific and technological missions. These include communications satellites like Starlink; space stations such as the ISS; scientific satellites like the Hubble; Earth observation satellites from companies like Planet Labs, Umbra, and HawkEye 360; GPS; miniature CubeSats for education and research; and military/defense satellites.

Loading next visibility...
Identifier
46538, 2020-070G
Orbit
LEO
Country
Flag of USUS
Related business
Manufacturer
SpaceX/Seattle
Mission
Partially operational Commercial Communications
Bus & Motor
STARLINK, Unknown motor
Mass
260 kg wet, ~248 kg dry
Launch date (UTC)
2020-10-06 (5 years ago)
Launch vehicle
FALCON 9
Launch site
Air Force Eastern Test Range (AFETR)
Object type
Payload
Rocket body
Debris
Shape & HBR
Box + 1 Pan, 10.1 m
Radar Cross Section
13.562 m², Large (>1 m²)

Expand to show TLE details & history
Last TLE update: 8 hours ago

TLE from 8 hours ago
0 STARLINK-1678
1 46538U 20070G   25291.12323126  .00055195  00000-0  12418-2 0  9997
2 46538  53.0511  78.7020 0007626 147.0066 213.1416 15.42772092278264
Epoch: 2025-10-18T02:57Z
TLE epoch observation values (Epoch: 2025-10-18T02:57:27.180Z)
Latitude
-0.00004°
Longitude
7.47995°
Altitude
443.179 km
Speed
7.645 km/s
True Right ascension
05h 14m 48s
True Declination
0° 00' 00"
Sunlit
Object was in full shadow at epoch
Visualization orbit readout
Latitude
Unknown
Longitude
Unknown
Altitude
Unknown
Speed
Unknown
Apparent Right ascension
Unknown
Apparent Declination
Unknown
Sunlit
N/A
Visualization observer readout
Local Sidereal Time
06:03:38
Azimuth
Unknown
Elevation
Unknown
Doppler factor
Unknown
Orbital elements
Apogee altitude
443.406 km
Perigee altitude
433.01 km
Semi-major axis
6,816.345 km
Eccentricity
0.00076
Inclination
53.0511°
RAAN
78.702°
Arg. of periapsis
147.0066°
True anomaly
213.09386°
Mean anomaly
213.1416°
Eccentric anomaly
213.11773°
Mean motion
3.8567 °/min
Orbital period
93.34 mins
BSTAR
0.0012418
Loading maneuver chart data...
Computing Atmospheric mass density...

Documentation

Showing up to 5 results
|